Starlink 5669

operational
NORAD ID: 55459 Int'l Des: 2023-015 Owner: SPXS Country: US Constellation: starlink
LEOCIRCULAR

About Starlink 5669

Description loading...

Live Position

Loading 3D Globe...

Upcoming Passes

Altitude History

Altitude vs Time

uPlot chart will show altitude changes over time

Two-Line Element Set

1 55459U 23015L 25303.99934424 .00000453 00000-0 48631-4 0 9994
2 55459 43.0042 310.8263 0001247 265.1820 94.8881 15.02538418151242
Epoch: Oct 30, 2025 • Age: 13 hours

Current Status

Altitude 559.3 km
Velocity 7.59 km/s
Sub-Earth Point 23.64°N, 140.93°W
Launch Date Feb 2, 2023
Age 2.7 years
Type internet

Technical Details

Classification Payload
Mass 305.00 kg
Dry Mass 290.00 kg
Total Mass 305.00 kg
Length 0.20 m
Diameter 2.80 m
Span 9.00 m
Shape Box + pan
Manufacturer SPXS
Bus Type Starlink
Phase Status In Orbit
Owner/State SPXS/US

Large Constellations

Loading constellations...